Погода в Маячном

Россия / Оренбургская область     51°05′42″N   57°30′42″E
темп.,
°C
ветер,
м/с
пор.,
м/с
влажн.,
%
обл.,
%
осадки,
мм/ч
давл.,
гПа
погр.,
м
7 мая, пт
пт723:00+10с2264100 0.0 102017
02:00+9всв227011 0.0 102018
05:00+8всв347293 0.0 102063
08:00+11в51062100 0.0 1020334
11:00+16в564599 0.0 1020907
14:00+19в4436100 0.0 10192005
17:00+19всв4535100 0.0 10182119
20:00+15св3654100 0.0 1017114
8 мая, сб
сб823:00+12в2356100 0.0 101727
02:00+10ююз3676100 0.0 1018145
05:00+9ююз1176100 0.0 101810
08:00+12ю1164100 0.0 1018177
11:00+16вюв3350100 0.0 10171309
14:00+16юв3352100 0.0 1017848
17:00+15юв345998 0.1 1017342
20:00+14ююз226417 0.0 101640
9 мая, вс
вс923:00+11зюз337118 0.0 101737
02:00+10зюз22784 0.0 101611
05:00+9зсз11819 0.0 101610
08:00+13с236985 0.0 1017174
11:00+17ссз235310 0.0 1016721
14:00+20ссз453832 0.0 10152398
17:00+20с453986 0.0 10151933
20:00+17св225776 0.0 101619
10 мая, пн
пн1023:00+14с22589 0.0 101711
02:00+12в11655 0.0 101710
05:00+11всв22665 0.0 101911
08:00+14всв48590 0.0 1020333
11:00+18всв56492 0.0 10201149
14:00+21всв564293 0.0 10202308
17:00+20всв664499 0.0 10201774
20:00+16всв226035 0.0 102217
11 мая, вт
вт1123:00+12юв3367100 0.0 102328
02:00+11ююв2271100 0.0 102317
05:00+10вюв1173100 0.0 102410
08:00+14в1262100 0.0 1025141
11:00+19вюв2343100 0.0 10261362
14:00+21всв2232100 0.0 10252049
17:00+21св333230 0.0 10252136
20:00+18всв22465 0.0 102517